This is the latest recevied weather packets stored in our database for station/object eb1ayw-13. If no packets are shown the sender has not sent any weather packets the latest 10 day(s).
| Time | Temp. | Humidity | Pressure | Rain* | Wind** | Luminosity | Snow |
|---|---|---|---|---|---|---|---|
| 1777738857 | 41.67° C | 14% | 1002.6 hPa | - | - | - | - |
| 1777738258 | 41.67° C | 14% | 1002.5 hPa | - | - | - | - |
| 1777737658 | 46.11° C | 12% | 1001.7 hPa | - | - | - | - |
| 1777737059 | 45.56° C | 12% | 1001.8 hPa | - | - | - | - |
| 1777736457 | 44.44° C | 13% | 1002.1 hPa | - | - | - | - |
| 1777735858 | 47.22° C | 12% | 1001.5 hPa | - | - | - | - |
| 1777735257 | 40.56° C | 15% | 1003.3 hPa | - | - | - | - |
| 1777734658 | 44.44° C | 13% | 1002.6 hPa | - | - | - | - |
| 1777734059 | 42.78° C | 13% | 1003.1 hPa | - | - | - | - |
| 1777733458 | 47.78° C | 11% | 1002 hPa | - | - | - | - |
| 1777732858 | 44.44° C | 12% | 1002.7 hPa | - | - | - | - |
| 1777732258 | 48.33° C | 11% | 1001.6 hPa | - | - | - | - |
| 1777731657 | 44.44° C | 13% | 1002.6 hPa | - | - | - | - |
| 1777731058 | 43.89° C | 14% | 1002.7 hPa | - | - | - | - |
| 1777730458 | 45° C | 13% | 1002.6 hPa | - | - | - | - |
| 1777729858 | 46.11° C | 13% | 1002.3 hPa | - | - | - | - |
| 1777729258 | 46.11° C | 14% | 1002.3 hPa | - | - | - | - |
| 1777728658 | 44.44° C | 15% | 1002.7 hPa | - | - | - | - |
| 1777728058 | 46.11° C | 14% | 1002.2 hPa | - | - | - | - |
| 1777727458 | 44.44° C | 16% | 1002.7 hPa | - | - | - | - |
| 1777726858 | 44.44° C | 15% | 1002.8 hPa | - | - | - | - |
| 1777726258 | 47.78° C | 14% | 1002.3 hPa | - | - | - | - |
| 1777725657 | 45.56° C | 16% | 1002.8 hPa | - | - | - | - |
| 1777725058 | 46.11° C | 16% | 1002.8 hPa | - | - | - | - |
| 1777724458 | 45.56° C | 17% | 1003.2 hPa | - | - | - | - |
* Rain since midnight (hover to see other rain measurements)
** Current wind speed in m/s (hover to see current wind gust speed)